TimeAST,TemperatureF,Dew PointF,Humidity,Sea Level PressureIn,VisibilityMPH,Wind Direction,Wind SpeedMPH,Gust SpeedMPH,PrecipitationIn,Events,Conditions,WindDirDegrees,DateUTC
12:53 AM,79.0,75.9,90,29.97,10.0,East,6.9,-,N/A,,Clear,100,2013-07-07 04:53:00
1:53 AM,80.1,75.9,87,29.95,10.0,East,8.1,-,N/A,,Partly Cloudy,90,2013-07-07 05:53:00
2:53 AM,80.1,75.9,87,29.95,10.0,East,10.4,-,N/A,,Scattered Clouds,100,2013-07-07 06:53:00
3:53 AM,78.1,77.0,96,29.94,10.0,East,6.9,-,0.04,,Mostly Cloudy,100,2013-07-07 07:53:00
4:53 AM,78.1,77.0,96,29.94,10.0,East,6.9,-,0.00,,Scattered Clouds,100,2013-07-07 08:53:00
5:40 AM,78.8,77.0,94,29.95,10.0,East,10.4,-,0.02,Rain,Light Rain,100,2013-07-07 09:40:00
5:53 AM,78.1,77.0,96,29.96,10.0,East,5.8,-,0.02,Rain,Light Rain,100,2013-07-07 09:53:00
6:53 AM,80.1,78.1,94,29.97,10.0,ESE,9.2,-,0.00,,Mostly Cloudy,110,2013-07-07 10:53:00
7:53 AM,82.0,78.1,88,29.99,10.0,ESE,8.1,-,N/A,,Mostly Cloudy,120,2013-07-07 11:53:00
8:11 AM,82.4,77.0,84,29.99,10.0,ESE,8.1,-,N/A,,Scattered Clouds,120,2013-07-07 12:11:00
8:53 AM,84.9,75.9,74,30.00,10.0,ESE,15.0,-,N/A,,Scattered Clouds,110,2013-07-07 12:53:00
9:53 AM,84.9,75.0,72,30.01,10.0,SE,16.1,-,N/A,,Scattered Clouds,130,2013-07-07 13:53:00
10:53 AM,87.1,77.0,72,30.01,10.0,East,9.2,-,N/A,,Mostly Cloudy,100,2013-07-07 14:53:00
11:05 AM,86.0,75.2,70,30.00,10.0,ESE,11.5,17.3,N/A,,Overcast,120,2013-07-07 15:05:00
11:53 AM,84.9,75.9,74,30.00,10.0,SE,17.3,-,N/A,,Overcast,140,2013-07-07 15:53:00
12:53 PM,84.0,81.0,90,30.00,10.0,East,11.5,-,0.04,,Mostly Cloudy,90,2013-07-07 16:53:00
1:53 PM,84.9,77.0,77,29.98,10.0,East,12.7,-,0.00,Rain,Light Rain,90,2013-07-07 17:53:00
2:53 PM,82.9,78.1,85,29.98,10.0,East,11.5,-,0.13,,Clear,80,2013-07-07 18:53:00
3:53 PM,84.0,77.0,79,29.97,10.0,East,9.2,-,N/A,,Clear,90,2013-07-07 19:53:00
4:53 PM,82.9,77.0,82,29.95,10.0,East,9.2,-,0.00,Rain,Light Rain,90,2013-07-07 20:53:00
5:53 PM,82.0,77.0,85,29.95,10.0,ENE,11.5,-,0.00,,Clear,60,2013-07-07 21:53:00
6:53 PM,80.1,75.9,87,29.98,10.0,ESE,10.4,-,N/A,,Scattered Clouds,110,2013-07-07 22:53:00
7:53 PM,78.1,77.0,96,29.98,10.0,East,9.2,-,0.00,,Scattered Clouds,90,2013-07-07 23:53:00
8:53 PM,78.1,73.9,87,30.01,10.0,ESE,10.4,-,N/A,,Partly Cloudy,110,2013-07-08 00:53:00
9:53 PM,80.1,77.0,90,30.01,10.0,East,8.1,-,N/A,,Partly Cloudy,100,2013-07-08 01:53:00
10:53 PM,79.0,77.0,94,30.03,10.0,East,8.1,-,0.03,,Scattered Clouds,100,2013-07-08 02:53:00
11:53 PM,79.0,78.1,97,30.03,10.0,East,9.2,-,0.00,,Clear,100,2013-07-08 03:53:00